Skip Page Navigation
NASA JPL Caltech
NASA Logo - Jet Propulsion Laboratory + View the NASA Portal
+ Center for Near-Earth Object Studies
JPL Home Earth Solar System Stars & Galaxies Technology
JPL Solar System Dynamics
BODIES ORBITS EPHEMERIDES TOOLS PHYSICAL DATA DISCOVERY FAQ SITE MAP
JPL Small-Body Database Browser
Search: [ help ]  
14708 Slaven (2000 CU26)
Classification: Main-belt Asteroid          SPK-ID: 2014708
Ephemeris | Orbit Diagram | Orbital Elements | Mission Design | Physical Parameters | Discovery Circumstances ]

[ show orbit diagram ]
Orbital Elements at Epoch 2459200.5 (2020-Dec-17.0) TDB
Reference: JPL 36 (heliocentric ecliptic J2000)
 Element Value Uncertainty (1-sigma)   Units 
e .2324134527038889 4.668e-08  
a 2.236895883505055 6.317e-09 au
q 1.71701118788053 1.0401e-07 au
i 3.309128382357014 4.1989e-06 deg
node 169.7625262680886 4.7516e-05 deg
peri 188.4212140086677 4.7849e-05 deg
M 208.8374585075084 6.1884e-06 deg
tp 2459713.607977233840
(2022-May-14.10797723)
2.2196e-05 TDB
period 1221.988397260162
3.35
5.1763e-06
1.417e-08
d
yr
n .2946018152113073 1.2479e-09 deg/d
Q 2.756780579129581 7.7851e-09 au
  Orbit Determination Parameters
   # obs. used (total)      1577  
   data-arc span      15560 days (42.60 yr)  
   first obs. used      1978-08-08  
   last obs. used      2021-03-15  
   planetary ephem.      DE441  
   SB-pert. ephem.      SB441-N16  
   condition code      0  
   norm. resid. RMS      .53122  
   source      ORB  
   producer      Otto Matic  
   solution date      2021-Apr-13 00:37:14  

Additional Information
 Earth MOID = .711565 au 
 Jupiter MOID = 2.6938 au 
 T_jup = 3.599 
[ show covariance matrix ]

Ephemeris | Orbit Diagram | Orbital Elements | Mission Design | Physical Parameters | Discovery Circumstances ]

Physical Parameter Table
Parameter Symbol Value Units Sigma Reference Notes
absolute magnitude H 14.74   n/a E2021B10  
diameter diameter 2.188 km 0.338 urn:nasa:pds:neowise_diameters_albedos::2.0[mainbelt] (http://adsabs.harvard.edu/abs/2016AJ....152...63N)  
geometric albedo albedo 0.486   0.172 urn:nasa:pds:neowise_diameters_albedos::2.0[mainbelt] (http://adsabs.harvard.edu/abs/2016AJ....152...63N)  

14708 Slaven           Discovered 2000 Feb. 2 by the Lincoln Laboratory Near-Earth Asteroid Research Team at Socorro.
Named in honor of Kathy Slaven for mentoring a finalist in the 2001 Discovery Young Scientist Challenge (DYSC), a middle school science competition. Slaven is a teacher at the Beech Grove Middle School, Beech Grove, Indiana.
NOTE: some special characters may not display properly (any characters within {} are an attempt to place the proper accent above a character)
Reference: 20011002/MPCPages.arcLast Updated: 2009-05-11

Alternate Designations
 2000 CU26 = 1978 PZ = 1985 UE5 = 1985 VF5 = 1991 KS = 1998 MC31 
Ephemeris | Orbit Diagram | Orbital Elements | Mission Design | Physical Parameters | Discovery Circumstances ]
ABOUT SSD CREDITS/AWARDS PRIVACY/COPYRIGHT GLOSSARY LINKS
FirstGov 2021-Apr-14 12:35 UT
(server date/time)  
NASA Home Page
Site Manager:   Ryan S. Park
Webmaster  Alan B. Chamberlin